Location: Ammerl�gen
(47.2167°N, 9.6000°E)
Time: 15:46:18
(UTC+00:00)

USA 245 - Pass Details

Date: 21 April 2021
Orbit: 268 x 984 km, 97.9° (Epoch: 02 May)

Event Time Altitude Azimuth Distance (km) Brightness Sun altitude
Exits shadow 19:46:14 23° 104° (ESE) 1,056 4.2 -13.9°
Maximum altitude 19:47:20 28° 72° (ENE) 896 4.1 -14.1°
Drops below altitude 10° 19:50:03 10° 11° (N) 1,474 5.8 -14.4°
Sets 19:51:59 0° 359° (N) 2,238 7.0 -14.7°
